Flag for Argentina Weather past 2 weeks in Bahía Blanca, Buenos Aires, Argentina

Now
63 °F

Scattered clouds.


Feels Like: 63 °F
Forecast: 54 / 77 °F
Wind: 15 mph from Southeast

Location: Mar Del Plata Aerodrome

Current Time: Oct 24, 2014 at 11:52:50 AM

Latest Report: Oct 24, 2014 at 11:00 AM


Visibility: N/A

Pressure: 30.09 "Hg

Humidity: 77%

Dew point: 55 °F

Location of Bahía BlancaLocation

Historic Weather in Bahía Blanca — Graph

°F

Bahía Blanca temperature yesterday

Maximum temperature yesterday: 64 °F (at 12:00 PM)
Minimum temperature yesterday: 57 °F (at 5:00 AM)
Average temperature yesterday: 59 °F

Past Weeks' High & Low Weather Summary

 TemperatureHumidityPressure
High84 °F (Oct 22, 2:00 PM)100% (Oct 12, 8:00 AM)30.21 "Hg (Oct 12, 8:00 AM)
Low37 °F (Oct 11, 3:00 AM)20% (Oct 13, 4:00 PM)29.65 "Hg (Oct 9, 12:00 PM)
Average58 °F71%29.98 "Hg
* Reported Oct 9 10:00 AM — Oct 24 10:00 AM, Bahía Blanca, Weather by CustomWeather, © 2014

Note: Actual official high and low records may vary slightly from our data, if they occured in-between our weather recording intervals... More about our weather records

Advertising

Bahía Blanca weather history for previous 24 hours

 ConditionsComfort  
Time TempWeatherWind HumidityBarometerVisibility
10:00 AM
Oct 24
63 °FSunny.9 mph77%30.09 "Hg10 mi
9:00 AM61 °FScattered clouds.7 mph83%30.12 "HgN/A
8:00 AM59 °FSunny.8 mph88%30.09 "Hg10 mi
7:00 AM59 °FSunny.6 mph88%30.09 "Hg10 mi
6:00 AM57 °FSunny.5 mph94%30.09 "Hg10 mi
5:00 AM57 °FSunny.3 mph88%30.07 "Hg10 mi
4:00 AM55 °FClear.No wind94%30.07 "Hg10 mi
3:00 AM55 °FClear.No wind94%30.04 "Hg10 mi
2:00 AM57 °FClear.No wind88%30.07 "Hg10 mi
12:00 AM57 °FLight rain. Overcast.No wind88%30.09 "Hg6 mi
11:00 PM
Oct 23
57 °FLight rain. Overcast.6 mph88%30.09 "Hg5 mi
10:00 PM57 °FClear.7 mph82%30.09 "Hg10 mi
9:00 PM57 °FClear.7 mph82%30.09 "Hg10 mi
8:00 PM57 °FRain. Passing clouds.6 mph88%30.09 "Hg6 mi
7:00 PM57 °FRain. Passing clouds.8 mph88%30.07 "Hg5 mi
6:00 PM57 °FLight rain. Partly sunny.7 mph88%30.07 "Hg6 mi
5:00 PM59 °FRain. Partly sunny.3 mph82%30.07 "Hg5 mi
4:00 PM59 °FLight rain. Partly sunny.9 mph77%30.04 "Hg5 mi
3:00 PM59 °FLight rain. Broken clouds.7 mph72%30.07 "Hg6 mi
2:00 PM61 °FSunny.12 mph55%30.09 "Hg10 mi
1:00 PM64 °FSunny.14 mph49%30.09 "Hg10 mi
12:00 PM64 °FSunny.14 mph49%30.12 "Hg10 mi
Weather by CustomWeather, © 2014

See weather overviewHow to use our weather pages